HAZ2825 ZSHC-ZBHH

Flight info

Callsign HAZ2825
Flight time 2h 15m
Altitude 38100
Route NIVIK5E NIVIK W135 DOGVI W545 VEMEX W163 HFE B208 TODAM TODAM9ZA
Aircraft A20N/M-SDE2E3FGHIRWXY/LB1

Departure

Time 2026-05-06 12:55
Airport Hangzhou Xiaoshan International Airport (ZSHC)

Arrival

Time 2026-05-06 15:11
Airport Hohhot Baita International Airport (ZBHH)
Time Latitude Longitude Altitude Speed Heading
2026-05-06 12:55 30.26269 120.46355 1956 ft 167 kts 65°
2026-05-06 12:55 30.26811 120.47590 2405 ft 182 kts 65°
2026-05-06 12:55 30.27413 120.48961 2858 ft 200 kts 64°
2026-05-06 12:56 30.28070 120.50451 3354 ft 215 kts 64°
2026-05-06 12:56 30.28749 120.51990 3808 ft 219 kts 63°
2026-05-06 12:56 30.29452 120.53575 3991 ft 221 kts 63°
2026-05-06 12:56 30.30152 120.55156 3992 ft 223 kts 63°
2026-05-06 12:57 30.30865 120.56770 3982 ft 225 kts 64°
2026-05-06 12:57 30.31598 120.58373 3991 ft 229 kts 57°
2026-05-06 12:57 30.32877 120.59615 4077 ft 260 kts 18°
2026-05-06 12:57 30.34664 120.59666 4849 ft 263 kts 339°
2026-05-06 12:58 30.36089 120.58542 6064 ft 245 kts 310°
2026-05-06 12:58 30.37108 120.57048 7078 ft 239 kts 305°
2026-05-06 12:58 30.38099 120.55510 7841 ft 242 kts 306°
2026-05-06 12:58 30.39155 120.53977 8588 ft 245 kts 308°
2026-05-06 12:59 30.40253 120.52480 9329 ft 247 kts 309°
2026-05-06 12:59 30.41382 120.51002 10062 ft 250 kts 310°
2026-05-06 12:59 30.42560 120.49503 10752 ft 253 kts 310°
2026-05-06 12:59 30.43753 120.48011 11439 ft 255 kts 311°
2026-05-06 13:00 30.44960 120.46514 12117 ft 257 kts 311°
2026-05-06 13:00 30.46175 120.45013 12745 ft 259 kts 311°
2026-05-06 13:00 30.47424 120.43478 13387 ft 262 kts 311°
2026-05-06 13:00 30.48672 120.41947 14004 ft 264 kts 311°
2026-05-06 13:01 30.49928 120.40410 14614 ft 266 kts 310°
2026-05-06 13:01 30.51204 120.38849 15255 ft 267 kts 310°
2026-05-06 13:01 30.52479 120.37286 15879 ft 268 kts 310°
2026-05-06 13:01 30.53758 120.35719 16465 ft 269 kts 310°
2026-05-06 13:02 30.55032 120.34154 17039 ft 271 kts 309°
2026-05-06 13:02 30.56337 120.32553 17605 ft 273 kts 309°
2026-05-06 13:02 30.57634 120.30962 18158 ft 274 kts 309°
2026-05-06 13:02 30.58941 120.29357 18713 ft 276 kts 309°
2026-05-06 13:03 30.60259 120.27737 19266 ft 277 kts 309°
2026-05-06 13:03 30.61582 120.26109 19798 ft 279 kts 309°
2026-05-06 13:03 30.62913 120.24473 20332 ft 280 kts 309°
2026-05-06 13:03 30.64245 120.22835 20870 ft 281 kts 308°
2026-05-06 13:04 30.65582 120.21191 21385 ft 283 kts 308°
2026-05-06 13:04 30.66950 120.19508 21861 ft 287 kts 308°
2026-05-06 13:04 30.68336 120.17796 22157 ft 298 kts 308°
2026-05-06 13:04 30.69775 120.16018 22412 ft 310 kts 308°
2026-05-06 13:05 30.71284 120.14154 22822 ft 317 kts 309°
2026-05-06 13:05 30.72783 120.12309 23434 ft 316 kts 309°
2026-05-06 13:05 30.74280 120.10468 24093 ft 314 kts 309°
2026-05-06 13:05 30.75772 120.08629 24769 ft 311 kts 309°
2026-05-06 13:06 30.77237 120.06821 25410 ft 309 kts 309°
2026-05-06 13:06 30.78710 120.05003 26013 ft 309 kts 309°
2026-05-06 13:06 30.80203 120.03155 26305 ft 318 kts 309°
2026-05-06 13:06 30.81744 120.01244 26540 ft 329 kts 309°
2026-05-06 13:07 30.83303 119.99312 26874 ft 335 kts 309°
2026-05-06 13:07 30.84902 119.97335 27387 ft 336 kts 309°
2026-05-06 13:07 30.86499 119.95360 27986 ft 334 kts 309°
2026-05-06 13:07 30.88095 119.93385 28559 ft 333 kts 309°
2026-05-06 13:08 30.89655 119.91453 29112 ft 331 kts 309°
2026-05-06 13:08 30.91222 119.89507 29647 ft 329 kts 309°
2026-05-06 13:08 30.92784 119.87568 30169 ft 328 kts 309°
2026-05-06 13:08 30.94340 119.85635 30664 ft 327 kts 309°
2026-05-06 13:09 30.95890 119.83709 31142 ft 326 kts 309°
2026-05-06 13:09 30.97450 119.81767 31397 ft 332 kts 309°
2026-05-06 13:09 30.99024 119.79806 31570 ft 339 kts 309°
2026-05-06 13:09 31.00664 119.77765 31742 ft 346 kts 309°
2026-05-06 13:10 31.02328 119.75691 31916 ft 354 kts 309°
2026-05-06 13:10 31.04011 119.73595 32092 ft 362 kts 309°
2026-05-06 13:10 31.05758 119.71418 32268 ft 370 kts 309°
2026-05-06 13:10 31.07536 119.69197 32452 ft 377 kts 309°
2026-05-06 13:11 31.09338 119.66949 32733 ft 381 kts 309°
2026-05-06 13:11 31.11166 119.64662 32874 ft 389 kts 310°
2026-05-06 13:11 31.13023 119.62338 33023 ft 396 kts 310°
2026-05-06 13:11 31.14899 119.59992 33167 ft 403 kts 310°
2026-05-06 13:12 31.16828 119.57580 33316 ft 409 kts 310°
2026-05-06 13:12 31.18837 119.55146 33463 ft 416 kts 312°
2026-05-06 13:12 31.20950 119.52840 33594 ft 423 kts 315°
2026-05-06 13:12 31.23235 119.50597 33726 ft 430 kts 318°
2026-05-06 13:13 31.25616 119.48474 33843 ft 436 kts 319°
2026-05-06 13:13 31.28059 119.46346 33951 ft 440 kts 320°
2026-05-06 13:13 31.30520 119.44210 34055 ft 444 kts 320°
2026-05-06 13:13 31.33014 119.42042 34158 ft 448 kts 320°
2026-05-06 13:14 31.35535 119.39849 34328 ft 450 kts 320°
2026-05-06 13:14 31.38038 119.37673 34541 ft 450 kts 320°
2026-05-06 13:14 31.40538 119.35493 34753 ft 450 kts 320°
2026-05-06 13:14 31.43072 119.33282 34932 ft 451 kts 319°
2026-05-06 13:15 31.45572 119.31097 35105 ft 452 kts 319°
2026-05-06 13:15 31.48100 119.28887 35347 ft 451 kts 319°
2026-05-06 13:15 31.50584 119.26717 35904 ft 443 kts 319°
2026-05-06 13:15 31.53039 119.24572 36459 ft 436 kts 319°
2026-05-06 13:16 31.55434 119.22477 36816 ft 434 kts 319°
2026-05-06 13:16 31.57865 119.20335 37022 ft 434 kts 319°
2026-05-06 13:16 31.60267 119.18201 37178 ft 434 kts 319°
2026-05-06 13:16 31.62669 119.16066 37377 ft 434 kts 318°
2026-05-06 13:17 31.65027 119.13868 37570 ft 432 kts 316°
2026-05-06 13:17 31.67282 119.11585 37742 ft 432 kts 315°
2026-05-06 13:17 31.69539 119.09264 37894 ft 431 kts 315°
2026-05-06 13:17 31.71825 119.06918 37998 ft 431 kts 315°
2026-05-06 13:18 31.74064 119.04626 38002 ft 431 kts 315°
2026-05-06 13:18 31.78222 118.99573 37997 ft 429 kts 306°
2026-05-06 13:19 31.81535 118.93803 37993 ft 429 kts 296°
2026-05-06 13:19 31.83964 118.87412 37988 ft 428 kts 287°
2026-05-06 13:19 31.84664 118.84058 37958 ft 425 kts 273°
2026-05-06 13:20 31.84529 118.80587 38003 ft 425 kts 263°
2026-05-06 13:20 31.83670 118.73746 37989 ft 426 kts 262°
2026-05-06 13:21 31.82910 118.66875 37991 ft 426 kts 264°
2026-05-06 13:21 31.82242 118.59960 37985 ft 426 kts 264°
2026-05-06 13:22 31.81605 118.53061 37989 ft 426 kts 264°
2026-05-06 13:22 31.80973 118.46160 37992 ft 426 kts 264°
2026-05-06 13:23 31.80339 118.39251 37983 ft 426 kts 264°
2026-05-06 13:23 31.79709 118.32350 37989 ft 426 kts 265°
2026-05-06 13:24 31.80039 118.25428 37991 ft 428 kts 281°
2026-05-06 13:24 31.82006 118.18811 37987 ft 431 kts 294°
2026-05-06 13:25 31.84769 118.12571 37996 ft 431 kts 295°
2026-05-06 13:25 31.87563 118.06335 37994 ft 433 kts 295°
2026-05-06 13:26 31.90352 118.00089 37996 ft 433 kts 295°
2026-05-06 13:26 31.93146 117.93813 37992 ft 433 kts 295°
2026-05-06 13:27 31.95933 117.87541 37994 ft 433 kts 295°
2026-05-06 13:27 31.98715 117.81271 37993 ft 433 kts 295°
2026-05-06 13:28 32.01495 117.74996 37987 ft 433 kts 295°
2026-05-06 13:28 32.04263 117.68739 37988 ft 434 kts 295°
2026-05-06 13:29 32.07040 117.62442 37988 ft 434 kts 295°
2026-05-06 13:29 32.09815 117.56140 37983 ft 433 kts 295°
2026-05-06 13:30 32.12593 117.49825 37981 ft 433 kts 295°
2026-05-06 13:30 32.15351 117.43544 37973 ft 434 kts 295°
2026-05-06 13:31 32.18116 117.37236 37973 ft 432 kts 295°
2026-05-06 13:31 32.20861 117.30962 37973 ft 432 kts 295°
2026-05-06 13:32 32.23621 117.24643 37973 ft 433 kts 294°
2026-05-06 13:32 32.26368 117.18340 37973 ft 432 kts 295°
2026-05-06 13:33 32.29098 117.12075 37969 ft 432 kts 294°
2026-05-06 13:33 32.31847 117.05741 37975 ft 432 kts 294°
2026-05-06 13:34 32.34578 116.99446 37974 ft 432 kts 294°
2026-05-06 13:34 32.37295 116.93174 37976 ft 432 kts 294°
2026-05-06 13:35 32.40041 116.86819 37975 ft 433 kts 294°
2026-05-06 13:35 32.42764 116.80504 37971 ft 433 kts 294°
2026-05-06 13:36 32.45502 116.74149 37972 ft 433 kts 294°
2026-05-06 13:36 32.48217 116.67833 37970 ft 434 kts 294°
2026-05-06 13:37 32.50946 116.61475 37964 ft 434 kts 294°
2026-05-06 13:37 32.53683 116.55086 37959 ft 433 kts 294°
2026-05-06 13:38 32.56385 116.48769 37955 ft 433 kts 294°
2026-05-06 13:38 32.59106 116.42389 37956 ft 432 kts 294°
2026-05-06 13:39 32.61814 116.36036 37953 ft 433 kts 294°
2026-05-06 13:39 32.64513 116.29687 37961 ft 432 kts 293°
2026-05-06 13:40 32.67222 116.23304 37958 ft 433 kts 294°
2026-05-06 13:40 32.69933 116.16908 37957 ft 433 kts 293°
2026-05-06 13:41 32.72611 116.10577 37959 ft 432 kts 293°
2026-05-06 13:41 32.75302 116.04203 37952 ft 433 kts 293°
2026-05-06 13:42 32.77995 115.97813 37955 ft 433 kts 293°
2026-05-06 13:42 32.80679 115.91422 37953 ft 432 kts 293°
2026-05-06 13:43 32.83361 115.85027 37947 ft 433 kts 293°
2026-05-06 13:43 32.86089 115.78679 37939 ft 434 kts 296°
2026-05-06 13:44 32.89312 115.72622 37946 ft 437 kts 301°
2026-05-06 13:44 32.93071 115.66923 37949 ft 439 kts 306°
2026-05-06 13:45 32.97072 115.61440 37950 ft 439 kts 307°
2026-05-06 13:45 33.03070 115.53239 37952 ft 438 kts 307°
2026-05-06 13:46 33.07081 115.47736 37954 ft 439 kts 307°
2026-05-06 13:46 33.11052 115.42283 37955 ft 437 kts 306°
2026-05-06 13:47 33.15020 115.36822 37952 ft 437 kts 306°
2026-05-06 13:47 33.19006 115.31326 37955 ft 438 kts 306°
2026-05-06 13:48 33.22981 115.25842 37959 ft 437 kts 306°
2026-05-06 13:48 33.26942 115.20364 37960 ft 437 kts 306°
2026-05-06 13:49 33.30896 115.14891 37966 ft 436 kts 306°
2026-05-06 13:49 33.34841 115.09418 37965 ft 436 kts 306°
2026-05-06 13:50 33.38810 115.03902 37966 ft 435 kts 306°
2026-05-06 13:50 33.42726 114.98459 37965 ft 434 kts 306°
2026-05-06 13:51 33.46667 114.92966 37971 ft 434 kts 306°
2026-05-06 13:51 33.50598 114.87479 37975 ft 434 kts 306°
2026-05-06 13:52 33.54521 114.81991 37980 ft 433 kts 306°
2026-05-06 13:52 33.58414 114.76540 37980 ft 433 kts 306°
2026-05-06 13:53 33.62379 114.71103 37973 ft 433 kts 307°
2026-05-06 13:53 33.66533 114.65887 37976 ft 435 kts 311°
2026-05-06 13:54 33.71147 114.61107 37979 ft 439 kts 315°
2026-05-06 13:54 33.75891 114.56554 37976 ft 439 kts 316°
2026-05-06 13:55 33.80670 114.51977 37974 ft 439 kts 316°
2026-05-06 13:55 33.85465 114.47427 37983 ft 439 kts 316°
2026-05-06 13:56 33.90281 114.42913 37982 ft 440 kts 316°
2026-05-06 13:56 33.95071 114.38409 37979 ft 439 kts 316°
2026-05-06 13:57 33.99892 114.33859 37982 ft 440 kts 315°
2026-05-06 13:57 34.04683 114.29330 37983 ft 439 kts 315°
2026-05-06 13:58 34.09459 114.24807 37984 ft 437 kts 315°
2026-05-06 13:58 34.14240 114.20276 37989 ft 437 kts 315°
2026-05-06 13:59 34.19030 114.15723 37990 ft 438 kts 315°
2026-05-06 13:59 34.23798 114.11187 37992 ft 438 kts 315°
2026-05-06 14:00 34.28589 114.06625 37999 ft 437 kts 315°
2026-05-06 14:00 34.33369 114.02060 38003 ft 436 kts 315°
2026-05-06 14:01 34.38138 113.97498 38014 ft 435 kts 315°
2026-05-06 14:01 34.42895 113.92944 38019 ft 435 kts 315°
2026-05-06 14:02 34.47814 113.88641 38023 ft 439 kts 321°
2026-05-06 14:02 34.53184 113.85010 38026 ft 444 kts 327°
2026-05-06 14:03 34.58943 113.82146 38025 ft 451 kts 334°
2026-05-06 14:03 34.64996 113.79996 38025 ft 455 kts 338°
2026-05-06 14:04 34.71117 113.77988 38020 ft 454 kts 338°
2026-05-06 14:04 34.77217 113.75979 38018 ft 455 kts 338°
2026-05-06 14:05 34.83327 113.73956 38013 ft 454 kts 338°
2026-05-06 14:05 34.89302 113.71668 38006 ft 450 kts 333°
2026-05-06 14:06 34.95217 113.69074 38005 ft 448 kts 333°
2026-05-06 14:06 35.01059 113.66495 38014 ft 447 kts 333°
2026-05-06 14:07 35.06888 113.63918 38018 ft 446 kts 333°
2026-05-06 14:07 35.12720 113.61337 38016 ft 446 kts 333°
2026-05-06 14:08 35.18549 113.58756 38017 ft 446 kts 333°
2026-05-06 14:08 35.24388 113.56168 38025 ft 446 kts 332°
2026-05-06 14:09 35.30177 113.53596 38033 ft 444 kts 332°
2026-05-06 14:09 35.35978 113.51012 38064 ft 444 kts 332°
2026-05-06 14:10 35.41755 113.48436 38100 ft 442 kts 332°
2026-05-06 14:10 35.47562 113.45856 38124 ft 441 kts 332°
2026-05-06 14:11 35.53329 113.43304 38145 ft 441 kts 332°
2026-05-06 14:11 35.59074 113.40756 38152 ft 440 kts 332°
2026-05-06 14:12 35.64817 113.38205 38156 ft 440 kts 332°
2026-05-06 14:12 35.70594 113.35630 38160 ft 439 kts 332°
2026-05-06 14:13 35.76330 113.33064 38162 ft 439 kts 331°
2026-05-06 14:13 35.82047 113.30506 38166 ft 437 kts 331°
2026-05-06 14:14 35.87770 113.27946 38159 ft 438 kts 331°
2026-05-06 14:14 35.93502 113.25395 38165 ft 437 kts 331°
2026-05-06 14:15 35.99193 113.22852 38165 ft 435 kts 331°
2026-05-06 14:15 36.04874 113.20307 38163 ft 435 kts 330°
2026-05-06 14:16 36.10583 113.17740 38160 ft 434 kts 331°
2026-05-06 14:16 36.16278 113.15178 38155 ft 435 kts 330°
2026-05-06 14:17 36.21949 113.12631 38154 ft 435 kts 331°
2026-05-06 14:17 36.27810 113.10465 38159 ft 441 kts 335°
2026-05-06 14:18 36.33715 113.08549 38156 ft 441 kts 335°
2026-05-06 14:18 36.39659 113.06630 38161 ft 438 kts 335°
2026-05-06 14:19 36.45527 113.04723 38167 ft 439 kts 335°
2026-05-06 14:19 36.51438 113.02797 38168 ft 438 kts 335°
2026-05-06 14:20 36.57375 113.00860 38164 ft 439 kts 335°
2026-05-06 14:20 36.63248 112.98942 38172 ft 438 kts 335°
2026-05-06 14:21 36.69125 112.97019 38174 ft 438 kts 334°
2026-05-06 14:21 36.75033 112.95081 38175 ft 440 kts 334°
2026-05-06 14:22 36.80924 112.93145 38190 ft 439 kts 334°
2026-05-06 14:22 36.86855 112.91193 38202 ft 438 kts 334°
2026-05-06 14:23 36.92741 112.89249 38201 ft 438 kts 334°
2026-05-06 14:23 36.98615 112.87313 38214 ft 436 kts 334°
2026-05-06 14:24 37.04449 112.85381 38214 ft 436 kts 334°
2026-05-06 14:24 37.10340 112.83437 38216 ft 438 kts 333°
2026-05-06 14:25 37.16217 112.81502 38228 ft 437 kts 333°
2026-05-06 14:25 37.22105 112.79550 38225 ft 438 kts 333°
2026-05-06 14:26 37.27971 112.77608 38226 ft 436 kts 333°
2026-05-06 14:26 37.33832 112.75661 38234 ft 435 kts 334°
2026-05-06 14:27 37.39666 112.73721 38226 ft 434 kts 333°
2026-05-06 14:27 37.45536 112.71760 38202 ft 435 kts 333°
2026-05-06 14:28 37.51373 112.69811 38213 ft 433 kts 333°
2026-05-06 14:28 37.57174 112.67870 38208 ft 433 kts 333°
2026-05-06 14:29 37.62989 112.65925 38194 ft 433 kts 333°
2026-05-06 14:29 37.68807 112.63978 38193 ft 433 kts 333°
2026-05-06 14:30 37.74709 112.62048 38193 ft 438 kts 335°
2026-05-06 14:30 37.80714 112.60538 38205 ft 439 kts 337°
2026-05-06 14:31 37.86713 112.59126 38206 ft 438 kts 337°
2026-05-06 14:31 37.92680 112.57730 38208 ft 437 kts 337°
2026-05-06 14:32 37.98651 112.56340 38212 ft 437 kts 337°
2026-05-06 14:32 38.04644 112.54938 38235 ft 437 kts 337°
2026-05-06 14:33 38.10605 112.53543 38245 ft 440 kts 337°
2026-05-06 14:33 38.16611 112.52129 38256 ft 439 kts 337°
2026-05-06 14:34 38.22604 112.50722 38262 ft 438 kts 337°
2026-05-06 14:34 38.28607 112.49307 38270 ft 438 kts 337°
2026-05-06 14:35 38.34582 112.47895 38274 ft 439 kts 337°
2026-05-06 14:35 38.40567 112.46476 38280 ft 440 kts 337°
2026-05-06 14:36 38.46581 112.45053 38284 ft 439 kts 337°
2026-05-06 14:36 38.52575 112.43623 38288 ft 439 kts 337°
2026-05-06 14:37 38.58584 112.42181 38288 ft 439 kts 337°
2026-05-06 14:37 38.64542 112.40749 38292 ft 437 kts 337°
2026-05-06 14:38 38.70529 112.39305 38296 ft 439 kts 337°
2026-05-06 14:38 38.76527 112.37856 38295 ft 437 kts 337°
2026-05-06 14:39 38.82510 112.36411 38297 ft 439 kts 336°
2026-05-06 14:39 38.88494 112.34962 38299 ft 439 kts 336°
2026-05-06 14:40 38.94480 112.33511 38306 ft 436 kts 336°
2026-05-06 14:40 39.00433 112.32062 38312 ft 436 kts 336°
2026-05-06 14:41 39.06411 112.30605 38307 ft 437 kts 336°
2026-05-06 14:41 39.12378 112.29149 38310 ft 437 kts 336°
2026-05-06 14:42 39.18378 112.27683 38309 ft 438 kts 336°
2026-05-06 14:42 39.24366 112.26216 38304 ft 439 kts 336°
2026-05-06 14:43 39.30378 112.24742 38314 ft 439 kts 336°
2026-05-06 14:43 39.33352 112.24013 38203 ft 435 kts 337°
2026-05-06 14:43 39.36321 112.23289 37709 ft 432 kts 337°
2026-05-06 14:44 39.39275 112.22558 36837 ft 435 kts 337°
2026-05-06 14:44 39.42248 112.21819 35914 ft 438 kts 337°
2026-05-06 14:44 39.45237 112.21079 35018 ft 439 kts 337°
2026-05-06 14:45 39.51222 112.19609 33208 ft 444 kts 338°
2026-05-06 14:45 39.54260 112.18875 32333 ft 446 kts 339°
2026-05-06 14:45 39.57305 112.18147 31471 ft 447 kts 339°
2026-05-06 14:45 39.60364 112.17417 30588 ft 448 kts 339°
2026-05-06 14:46 39.63411 112.16688 29634 ft 450 kts 339°
2026-05-06 14:46 39.66483 112.15947 28542 ft 452 kts 340°
2026-05-06 14:46 39.69541 112.15207 27391 ft 456 kts 341°
2026-05-06 14:46 39.72660 112.14451 26177 ft 459 kts 341°
2026-05-06 14:47 39.75807 112.13692 24950 ft 461 kts 342°
2026-05-06 14:47 39.78951 112.12932 23707 ft 464 kts 343°
2026-05-06 14:47 39.82104 112.12170 22678 ft 459 kts 343°
2026-05-06 14:47 39.85201 112.11432 22219 ft 443 kts 343°
2026-05-06 14:48 39.88171 112.10729 21943 ft 426 kts 343°
2026-05-06 14:48 39.91032 112.10048 21691 ft 410 kts 343°
2026-05-06 14:48 39.93782 112.09386 21446 ft 395 kts 343°
2026-05-06 14:48 39.96423 112.08747 21206 ft 381 kts 342°
2026-05-06 14:49 39.98992 112.08123 20780 ft 374 kts 342°
2026-05-06 14:49 40.01522 112.07501 20170 ft 372 kts 342°
2026-05-06 14:49 40.04069 112.06874 19543 ft 370 kts 342°
2026-05-06 14:49 40.06572 112.06260 18964 ft 366 kts 343°
2026-05-06 14:50 40.09044 112.05655 18402 ft 363 kts 343°
2026-05-06 14:50 40.11530 112.05046 17848 ft 359 kts 343°
2026-05-06 14:50 40.13941 112.04454 17322 ft 355 kts 344°
2026-05-06 14:50 40.16352 112.03863 16794 ft 351 kts 344°
2026-05-06 14:51 40.18733 112.03281 16252 ft 347 kts 344°
2026-05-06 14:51 40.21088 112.02704 15698 ft 344 kts 345°
2026-05-06 14:51 40.23422 112.02132 15150 ft 341 kts 345°
2026-05-06 14:51 40.25715 112.01570 14829 ft 331 kts 345°
2026-05-06 14:52 40.27953 112.01025 14615 ft 318 kts 345°
2026-05-06 14:52 40.30070 112.00507 14338 ft 310 kts 346°
2026-05-06 14:52 40.32195 111.99982 13907 ft 306 kts 346°
2026-05-06 14:52 40.34271 111.99470 13438 ft 303 kts 346°
2026-05-06 14:53 40.36335 111.98963 12945 ft 302 kts 346°
2026-05-06 14:53 40.38393 111.98455 12456 ft 300 kts 346°
2026-05-06 14:53 40.40405 111.97961 12215 ft 291 kts 347°
2026-05-06 14:53 40.42348 111.97485 12022 ft 280 kts 346°
2026-05-06 14:54 40.44240 111.97018 11837 ft 270 kts 346°
2026-05-06 14:54 40.46051 111.96573 11625 ft 262 kts 347°
2026-05-06 14:54 40.47844 111.96128 11276 ft 259 kts 347°
2026-05-06 14:54 40.49603 111.95691 10896 ft 258 kts 347°
2026-05-06 14:55 40.51347 111.95260 10520 ft 256 kts 347°
2026-05-06 14:55 40.53086 111.94829 10163 ft 253 kts 347°
2026-05-06 14:55 40.54814 111.94402 9801 ft 251 kts 348°
2026-05-06 14:55 40.56530 111.93977 9413 ft 249 kts 348°
2026-05-06 14:56 40.58206 111.93562 9263 ft 247 kts 348°
2026-05-06 14:56 40.59909 111.93143 9258 ft 250 kts 348°
2026-05-06 14:56 40.61642 111.92712 9258 ft 251 kts 348°
2026-05-06 14:56 40.63348 111.92291 9259 ft 250 kts 348°
2026-05-06 14:57 40.65044 111.91872 9258 ft 248 kts 348°
2026-05-06 14:57 40.66695 111.91464 9251 ft 232 kts 348°
2026-05-06 14:57 40.68239 111.91078 9248 ft 216 kts 348°
2026-05-06 14:57 40.69662 111.90725 9244 ft 201 kts 348°
2026-05-06 14:58 40.71014 111.90591 9234 ft 194 kts
2026-05-06 14:58 40.72283 111.91209 9243 ft 195 kts 27°
2026-05-06 14:58 40.73240 111.92426 9236 ft 190 kts 47°
2026-05-06 14:58 40.73841 111.93935 9236 ft 185 kts 54°
2026-05-06 14:59 40.74384 111.95473 9378 ft 186 kts 54°
2026-05-06 14:59 40.74932 111.97038 9320 ft 186 kts 54°
2026-05-06 14:59 40.75467 111.98574 9287 ft 185 kts 55°
2026-05-06 14:59 40.76000 112.00115 9274 ft 185 kts 55°
2026-05-06 15:00 40.76530 112.01652 9273 ft 185 kts 54°
2026-05-06 15:00 40.76879 112.02657 9270 ft 185 kts 55°
2026-05-06 15:00 40.77409 112.04188 9278 ft 184 kts 55°
2026-05-06 15:00 40.77940 112.05727 9284 ft 185 kts 55°
2026-05-06 15:01 40.78469 112.07262 9282 ft 183 kts 55°
2026-05-06 15:01 40.78699 112.07928 9278 ft 184 kts 55°
2026-05-06 15:01 40.79230 112.09462 9283 ft 185 kts 55°
2026-05-06 15:01 40.79766 112.11020 9282 ft 185 kts 55°
2026-05-06 15:02 40.80299 112.12569 9280 ft 186 kts 55°
2026-05-06 15:02 40.80837 112.14133 9270 ft 188 kts 55°
2026-05-06 15:02 40.81377 112.15704 9268 ft 188 kts 54°
2026-05-06 15:02 40.81915 112.17267 9261 ft 187 kts 54°
2026-05-06 15:03 40.82457 112.18838 9259 ft 188 kts 55°
2026-05-06 15:03 40.83067 112.20334 9244 ft 177 kts 39°
2026-05-06 15:03 40.84084 112.20918 9236 ft 159 kts 357°
2026-05-06 15:03 40.85137 112.20538 9251 ft 158 kts 332°
2026-05-06 15:04 40.85979 112.19619 9257 ft 158 kts 321°
2026-05-06 15:04 40.86801 112.18655 9253 ft 158 kts 322°
2026-05-06 15:04 40.87613 112.17717 9091 ft 153 kts 323°
2026-05-06 15:04 40.88412 112.16795 8612 ft 156 kts 324°
2026-05-06 15:05 40.89245 112.15847 8090 ft 158 kts 323°
2026-05-06 15:05 40.90068 112.14903 7621 ft 159 kts 324°
2026-05-06 15:05 40.90900 112.13953 7238 ft 158 kts 323°
2026-05-06 15:05 40.91589 112.12791 7155 ft 171 kts 300°
2026-05-06 15:06 40.91679 112.11166 7165 ft 189 kts 269°
2026-05-06 15:06 40.91316 112.09476 7169 ft 191 kts 262°
2026-05-06 15:06 40.90923 112.07793 7133 ft 197 kts 262°
2026-05-06 15:06 40.90526 112.06036 6910 ft 200 kts 262°
2026-05-06 15:07 40.90123 112.04301 6627 ft 193 kts 262°
2026-05-06 15:07 40.89737 112.02677 6367 ft 184 kts 261°
2026-05-06 15:07 40.89359 112.01071 6136 ft 184 kts 261°
2026-05-06 15:07 40.88979 111.99461 5878 ft 184 kts 259°
2026-05-06 15:08 40.88599 111.97861 5664 ft 182 kts 260°
2026-05-06 15:08 40.88222 111.96279 5418 ft 174 kts 261°
2026-05-06 15:08 40.87866 111.94790 5167 ft 166 kts 260°
2026-05-06 15:08 40.87532 111.93361 4946 ft 162 kts 258°
2026-05-06 15:09 40.87196 111.91923 4758 ft 163 kts 256°
2026-05-06 15:09 40.86865 111.90533 4522 ft 153 kts 257°
2026-05-06 15:09 40.86549 111.89197 4323 ft 151 kts 258°
2026-05-06 15:09 40.86224 111.87850 4181 ft 154 kts 256°
2026-05-06 15:10 40.85884 111.86526 3962 ft 151 kts 258°
2026-05-06 15:10 40.85614 111.85239 3713 ft 143 kts 258°
2026-05-06 15:10 40.85334 111.83979 3581 ft 138 kts 256°
2026-05-06 15:10 40.85080 111.82893 3568 ft 104 kts 253°
2026-05-06 15:11 40.84911 111.82144 3567 ft 62 kts 261°
2026-05-06 15:11 40.84932 111.81815 3567 ft 16 kts 285°
2026-05-06 15:11 40.84989 111.81764 3567 ft 11 kts
2026-05-06 15:11 40.85063 111.81744 3567 ft 10 kts 334°
2026-05-06 15:12 40.85136 111.81709 3567 ft 11 kts 343°
2026-05-06 15:12 40.85215 111.81677 3567 ft 10 kts 342°
2026-05-06 15:12 40.85254 111.81622 3567 ft 5 kts 303°
2026-05-06 15:12 40.85289 111.81602 3567 ft 5 kts 342°
2026-05-06 15:13 40.85318 111.81589 3567 ft 4 kts 345°
2026-05-06 15:13 40.85324 111.81587 3567 ft 0 kts 343°
2026-05-06 15:27 40.85318 111.81589 3567 ft 0 kts 343°
2026-05-06 15:27 40.85319 111.81589 3567 ft 0 kts 343°